Regional Weather Roundup
Issued by NWS Little Rock, AR

Home | Current Version | Previous Version | Text Only | Print | Product List | Glossary Off
Versions: 1 2 3 4 5 6 7 8 9 10 11 12 13 14 15 16 17 18 19 20 21 22 23 24 25 26 27 28 29 30 31 32 33 34 35 36 37 38 39 40 41 42 43 44 45 46 47 48 49 50

863
ASUS44 KLZK 062005
RWRLZK

WEATHER ROUNDUP FOR ARKANSAS
NATIONAL WEATHER SERVICE LITTLE ROCK AR
200 PM CST SAT FEB 06 2016

NOTE: "FAIR" INDICATES FEW OR NO CLOUDS BELOW 12,000 FEET WITH NO
SIGNIFICANT WEATHER AND/OR OBSTRUCTIONS TO VISIBILITY.

ARZ001-003-010-029-062100-
NORTHWEST ARKANSAS

CITY           SKY/WX    TMP DP  RH WIND       PRES   REMARKS
FAYETTEVILLE   MOSUNNY   52  26  36 SW8       30.28F
FORT SMITH     SUNNY     56  19  23 VRB6      30.31F
HARRISON       SUNNY     50  23  34 VRB3      30.27F
BENTONVILLE    MOSUNNY  N/A N/A N/A SW10      30.28F
ROGERS         SUNNY     53  27  36 SW12      30.27F
SILOAM SPGS    SUNNY     54  27  35 W9        30.28F
HIGHFILL       MOSUNNY   53  28  38 MISG      30.27F
SPRINGDALE     SUNNY     54  25  32 W9        30.30F
$$

ARZ004-005-016-062100-
NORTH CENTRAL ARKANSAS

CITY           SKY/WX    TMP DP  RH WIND       PRES   REMARKS
BATESVILLE     SUNNY     55  16  21 SE6       30.31F
FLIPPIN        SUNNY     54  19  26 CALM      30.27F
MTN HOME       SUNNY     53  19  26 CALM      30.27F
$$

ARZ040-041-062100-
WEST CENTRAL ARKANSAS

CITY           SKY/WX    TMP DP  RH WIND       PRES   REMARKS
MENA           SUNNY     55  19  24 W3        30.28F
MOUNT IDA      SUNNY     55  16  21 VRB3      30.27F
$$

ARZ009-017-025-026-028-062100-
NORTHEAST ARKANSAS

CITY           SKY/WX    TMP DP  RH WIND       PRES   REMARKS
CORNING        FAIR      55  19  24 S9        30.31F
JONESBORO      SUNNY     51  22  31 SW6       30.32F
NEWPORT        SUNNY     56  17  21 VRB6      30.33F
BLYTHEVILLE    MOSUNNY   55  23  28 S7        30.32F
$$

ARZ022-023-033-042-044-062100-
CENTRAL ARKANSAS

CITY           SKY/WX    TMP DP  RH WIND       PRES   REMARKS
LITTLE ROCK    MOSUNNY   57  20  23 VRB7      30.32F
N LITTLE ROCK  MOSUNNY   54  23  29 SW5       30.32F
JACKSONVILLE   SUNNY     55  19  24 VRB1      30.31F
SEARCY         SUNNY     56  20  24 CALM      30.33F
HOT SPRINGS    SUNNY     55  19  24 E6        30.30F
RUSSELLVILLE   SUNNY     54  18  24 S6        30.29F
CLINTON        FAIR      54  18  24 CALM      30.30F
$$

ARZ036-062100-
EAST ARKANSAS

CITY           SKY/WX    TMP DP  RH WIND       PRES   REMARKS
WEST MEMPHIS   PTSUNNY   51  28  41 NW5       30.32F
$$

ARZ050-053-066-070-073-062100-
SOUTHWEST ARKANSAS

CITY           SKY/WX    TMP DP  RH WIND       PRES   REMARKS
ARKADELPHIA    FAIR      58  22  25 S5        30.31F
CAMDEN         SUNNY     59  18  20 CALM      30.30F
TEXARKANA      SUNNY     57  30  35 VRB6      30.31F
EL DORADO      SUNNY     55  22  27 E5        30.30F
DE QUEEN       SUNNY     56  23  27 S5        30.29F
$$

ARZ056-057-069-062100-
SOUTHEAST ARKANSAS

CITY           SKY/WX    TMP DP  RH WIND       PRES   REMARKS
PINE BLUFF     MOSUNNY   55  21  26 NE8       30.31F
STUTTGART      SUNNY     54  23  30 E5        30.33F
MONTICELLO     SUNNY     58  19  22 VRB6      30.30F

$$






USA.gov is the U.S. government's official web portal to all federal, state and local government web resources and services.